Time,TemperatureF,DewpointF,PressureIn,WindDirection,WindDirectionDegrees,WindSpeedMPH,WindSpeedGustMPH,Humidity,HourlyPrecipIn,Conditions,Clouds,dailyrainin,SoftwareType,DateUTC
2013-01-27 00:03:00,23.5,9.3,30.14,SE,135,11.0,15.0,54,0.00,,,0.00,meteohub,2013-01-27 06:03:00,
2013-01-27 00:08:00,23.7,9.5,30.14,South,180,12.0,15.0,54,0.00,,,0.00,meteohub,2013-01-27 06:08:00,
2013-01-27 00:13:00,23.7,9.5,30.14,SE,135,17.0,17.0,54,0.00,,,0.00,meteohub,2013-01-27 06:13:00,
2013-01-27 00:18:00,23.7,9.5,30.14,SE,135,18.0,18.0,54,0.00,,,0.00,meteohub,2013-01-27 06:18:00,
2013-01-27 00:23:00,23.7,9.5,30.14,SE,135,10.0,18.0,54,0.00,,,0.00,meteohub,2013-01-27 06:23:00,
2013-01-27 00:28:00,23.7,9.5,30.14,South,180,14.0,18.0,54,0.00,,,0.00,meteohub,2013-01-27 06:28:00,
2013-01-27 00:33:00,23.7,9.5,30.14,SE,135,15.0,18.0,54,0.00,,,0.00,meteohub,2013-01-27 06:33:00,
2013-01-27 00:38:00,23.7,9.1,30.14,SE,135,14.0,17.0,53,0.00,,,0.00,meteohub,2013-01-27 06:38:00,
2013-01-27 00:43:00,23.7,9.1,30.14,South,180,9.0,17.0,53,0.00,,,0.00,meteohub,2013-01-27 06:43:00,
2013-01-27 00:48:00,23.9,9.3,30.14,ESE,113,14.0,17.0,53,0.00,,,0.00,meteohub,2013-01-27 06:48:00,
2013-01-27 00:53:00,23.9,9.3,30.13,South,180,14.0,17.0,53,0.00,,,0.00,meteohub,2013-01-27 06:53:00,
2013-01-27 00:58:00,23.9,9.3,30.13,SE,135,15.0,17.0,53,0.00,,,0.00,meteohub,2013-01-27 06:58:00,
2013-01-27 01:03:00,23.9,9.3,30.13,SE,135,14.0,17.0,53,0.00,,,0.00,meteohub,2013-01-27 07:03:00,
2013-01-27 01:08:00,23.9,9.3,30.12,South,180,17.0,17.0,53,0.00,,,0.00,meteohub,2013-01-27 07:08:00,
2013-01-27 01:13:00,23.9,9.3,30.12,South,180,15.0,15.0,53,0.00,,,0.00,meteohub,2013-01-27 07:13:00,
2013-01-27 01:18:00,24.1,9.5,30.12,SE,135,16.0,17.0,53,0.00,,,0.00,meteohub,2013-01-27 07:18:00,
2013-01-27 01:23:00,24.1,9.5,30.12,SE,135,15.0,17.0,53,0.00,,,0.00,meteohub,2013-01-27 07:23:00,
2013-01-27 01:28:00,24.1,9.5,30.12,SE,135,15.0,16.0,53,0.00,,,0.00,meteohub,2013-01-27 07:28:00,
2013-01-27 01:33:00,24.1,9.5,30.12,SE,135,13.0,17.0,53,0.00,,,0.00,meteohub,2013-01-27 07:33:00,
2013-01-27 01:39:00,24.3,9.1,30.12,SE,135,14.0,17.0,52,0.00,,,0.00,meteohub,2013-01-27 07:39:00,
2013-01-27 01:44:00,24.3,9.1,30.12,South,180,15.0,17.0,52,0.00,,,0.00,meteohub,2013-01-27 07:44:00,
2013-01-27 01:49:00,24.4,9.3,30.12,SE,135,12.0,17.0,52,0.00,,,0.00,meteohub,2013-01-27 07:49:00,
2013-01-27 01:54:00,24.4,9.3,30.12,SE,135,17.0,18.0,52,0.00,,,0.00,meteohub,2013-01-27 07:54:00,
2013-01-27 01:59:00,24.4,9.3,30.11,SE,135,13.0,18.0,52,0.00,,,0.00,meteohub,2013-01-27 07:59:00,
2013-01-27 02:04:00,24.4,9.3,30.11,SE,135,13.0,18.0,52,0.00,,,0.00,meteohub,2013-01-27 08:04:00,
2013-01-27 02:09:00,24.4,9.3,30.11,SE,135,14.0,17.0,52,0.00,,,0.00,meteohub,2013-01-27 08:09:00,
2013-01-27 02:14:00,24.4,9.3,30.11,South,180,14.0,17.0,52,0.00,,,0.00,meteohub,2013-01-27 08:14:00,
2013-01-27 02:19:00,24.6,9.5,30.11,South,180,12.0,17.0,52,0.00,,,0.00,meteohub,2013-01-27 08:19:00,
2013-01-27 02:24:00,24.6,9.5,30.11,South,180,18.0,19.0,52,0.00,,,0.00,meteohub,2013-01-27 08:24:00,
2013-01-27 02:29:00,24.6,9.5,30.11,South,180,10.0,19.0,52,0.00,,,0.00,meteohub,2013-01-27 08:29:00,
2013-01-27 02:34:00,24.6,9.5,30.10,SE,135,15.0,19.0,52,0.00,,,0.00,meteohub,2013-01-27 08:34:00,
2013-01-27 02:39:00,24.6,9.5,30.10,SE,135,17.0,18.0,52,0.00,,,0.00,meteohub,2013-01-27 08:39:00,
2013-01-27 02:44:00,24.6,9.9,30.10,SE,135,13.0,17.0,53,0.00,,,0.00,meteohub,2013-01-27 08:44:00,
2013-01-27 02:49:00,24.6,9.9,30.10,SE,135,13.0,19.0,53,0.00,,,0.00,meteohub,2013-01-27 08:49:00,
2013-01-27 02:54:00,24.6,9.9,30.10,SE,135,15.0,19.0,53,0.00,,,0.00,meteohub,2013-01-27 08:54:00,
2013-01-27 02:59:00,24.6,9.9,30.10,SE,135,16.0,16.0,53,0.00,,,0.00,meteohub,2013-01-27 08:59:00,
2013-01-27 03:04:00,24.8,9.7,30.09,SE,135,16.0,17.0,52,0.00,,,0.00,meteohub,2013-01-27 09:04:00,
2013-01-27 03:09:00,24.8,9.7,30.09,SE,135,11.0,17.0,52,0.00,,,0.00,meteohub,2013-01-27 09:09:00,
2013-01-27 03:14:00,24.8,9.7,30.09,SE,135,13.0,16.0,52,0.00,,,0.00,meteohub,2013-01-27 09:14:00,
2013-01-27 03:19:00,24.8,9.7,30.10,SE,135,15.0,16.0,52,0.00,,,0.00,meteohub,2013-01-27 09:19:00,
2013-01-27 03:24:00,24.8,9.7,30.09,South,180,11.0,17.0,52,0.00,,,0.00,meteohub,2013-01-27 09:24:00,
2013-01-27 03:30:00,25.0,9.9,30.09,SE,135,13.0,17.0,52,0.00,,,0.00,meteohub,2013-01-27 09:30:00,
2013-01-27 03:35:00,25.0,9.9,30.08,SE,135,13.0,17.0,52,0.00,,,0.00,meteohub,2013-01-27 09:35:00,
2013-01-27 03:40:00,25.0,9.9,30.08,SE,135,15.0,15.0,52,0.00,,,0.00,meteohub,2013-01-27 09:40:00,
2013-01-27 03:45:00,25.2,10.0,30.08,SE,135,11.0,17.0,52,0.00,,,0.00,meteohub,2013-01-27 09:45:00,
2013-01-27 03:50:00,25.2,10.0,30.07,SSW,203,15.0,17.0,52,0.00,,,0.00,meteohub,2013-01-27 09:50:00,
2013-01-27 03:55:00,25.2,10.0,30.07,East,90,13.0,17.0,52,0.00,,,0.00,meteohub,2013-01-27 09:55:00,
2013-01-27 04:00:00,25.2,10.0,30.08,South,180,15.0,17.0,52,0.00,,,0.00,meteohub,2013-01-27 10:00:00,
2013-01-27 04:05:00,25.2,10.0,30.07,South,180,15.0,15.0,52,0.00,,,0.00,meteohub,2013-01-27 10:05:00,
2013-01-27 04:10:00,25.2,10.4,30.08,SE,135,15.0,15.0,53,0.00,,,0.00,meteohub,2013-01-27 10:10:00,
2013-01-27 04:15:00,25.2,10.4,30.07,SE,135,15.0,15.0,53,0.00,,,0.00,meteohub,2013-01-27 10:15:00,
2013-01-27 04:20:00,25.3,10.6,30.06,East,90,14.0,15.0,53,0.00,,,0.00,meteohub,2013-01-27 10:20:00,
2013-01-27 04:25:00,25.3,10.6,30.07,South,180,15.0,18.0,53,0.00,,,0.00,meteohub,2013-01-27 10:25:00,
2013-01-27 04:30:00,25.3,10.6,30.06,SE,135,12.0,18.0,53,0.00,,,0.00,meteohub,2013-01-27 10:30:00,
2013-01-27 04:35:00,25.3,10.6,30.06,SE,135,15.0,22.0,53,0.00,,,0.00,meteohub,2013-01-27 10:35:00,
2013-01-27 04:40:00,25.3,10.6,30.06,SE,135,13.0,22.0,53,0.00,,,0.00,meteohub,2013-01-27 10:40:00,
2013-01-27 04:45:00,25.3,10.6,30.06,SE,135,17.0,20.0,53,0.00,,,0.00,meteohub,2013-01-27 10:45:00,
2013-01-27 04:50:00,25.3,10.6,30.06,SE,135,15.0,20.0,53,0.00,,,0.00,meteohub,2013-01-27 10:50:00,
2013-01-27 04:55:00,25.5,10.8,30.06,East,90,15.0,20.0,53,0.00,,,0.00,meteohub,2013-01-27 10:55:00,
2013-01-27 05:00:00,25.5,10.8,30.05,SE,135,12.0,17.0,53,0.00,,,0.00,meteohub,2013-01-27 11:00:00,
2013-01-27 05:05:00,25.5,11.1,30.05,SE,135,13.0,15.0,54,0.00,,,0.00,meteohub,2013-01-27 11:05:00,
2013-01-27 05:10:00,25.7,11.3,30.05,SE,135,14.0,17.0,54,0.00,,,0.00,meteohub,2013-01-27 11:10:00,
2013-01-27 05:15:00,25.7,11.3,30.06,SE,135,16.0,17.0,54,0.00,,,0.00,meteohub,2013-01-27 11:15:00,
2013-01-27 05:21:00,25.7,11.3,30.06,South,180,13.0,17.0,54,0.00,,,0.00,meteohub,2013-01-27 11:21:00,
2013-01-27 05:26:00,25.7,11.3,30.06,SE,135,11.0,16.0,54,0.00,,,0.00,meteohub,2013-01-27 11:26:00,
2013-01-27 05:31:00,25.7,11.3,30.06,SE,135,15.0,16.0,54,0.00,,,0.00,meteohub,2013-01-27 11:31:00,
2013-01-27 05:36:00,25.7,11.8,30.05,SE,135,14.0,16.0,55,0.00,,,0.00,meteohub,2013-01-27 11:36:00,
2013-01-27 05:41:00,25.7,11.8,30.06,South,180,10.0,16.0,55,0.00,,,0.00,meteohub,2013-01-27 11:41:00,
2013-01-27 05:46:00,25.9,12.0,30.06,South,180,15.0,16.0,55,0.00,,,0.00,meteohub,2013-01-27 11:46:00,
2013-01-27 05:51:00,25.9,12.0,30.06,SE,135,15.0,16.0,55,0.00,,,0.00,meteohub,2013-01-27 11:51:00,
2013-01-27 05:56:00,25.9,12.0,30.06,SE,135,15.0,16.0,55,0.00,,,0.00,meteohub,2013-01-27 11:56:00,
2013-01-27 06:01:00,25.9,12.0,30.05,South,180,17.0,17.0,55,0.00,,,0.00,meteohub,2013-01-27 12:01:00,
2013-01-27 06:06:00,25.9,12.0,30.05,South,180,17.0,17.0,55,0.00,,,0.00,meteohub,2013-01-27 12:06:00,
2013-01-27 06:11:00,26.1,12.0,30.05,SE,135,19.0,19.0,55,0.00,,,0.00,meteohub,2013-01-27 12:11:00,
2013-01-27 06:16:00,26.1,12.6,30.05,SE,135,14.0,19.0,56,0.00,,,0.00,meteohub,2013-01-27 12:16:00,
2013-01-27 06:21:00,26.1,12.6,30.05,SE,135,12.0,19.0,56,0.00,,,0.00,meteohub,2013-01-27 12:21:00,
2013-01-27 06:26:00,26.1,12.6,30.05,South,180,15.0,22.0,56,0.00,,,0.00,meteohub,2013-01-27 12:26:00,
2013-01-27 06:31:00,26.2,12.7,30.05,SE,135,18.0,22.0,56,0.00,,,0.00,meteohub,2013-01-27 12:31:00,
2013-01-27 06:36:00,26.2,12.7,30.05,SE,135,13.0,22.0,56,0.00,,,0.00,meteohub,2013-01-27 12:36:00,
2013-01-27 06:41:00,26.2,12.7,30.05,SE,135,14.0,19.0,56,0.00,,,0.00,meteohub,2013-01-27 12:41:00,
2013-01-27 06:46:00,26.2,12.7,30.05,SE,135,14.0,19.0,56,0.00,,,0.00,meteohub,2013-01-27 12:46:00,
2013-01-27 06:51:00,26.2,12.7,30.05,SE,135,19.0,19.0,56,0.00,,,0.00,meteohub,2013-01-27 12:51:00,
2013-01-27 06:56:00,26.2,12.7,30.06,SE,135,15.0,19.0,56,0.00,,,0.00,meteohub,2013-01-27 12:56:00,
2013-01-27 07:01:00,26.2,13.1,30.07,SE,135,15.0,19.0,57,0.00,,,0.00,meteohub,2013-01-27 13:01:00,
2013-01-27 07:07:00,26.2,13.1,30.07,SE,135,13.0,19.0,57,0.00,,,0.00,meteohub,2013-01-27 13:07:00,
2013-01-27 07:12:00,26.4,12.9,30.07,SE,135,17.0,17.0,56,0.00,,,0.00,meteohub,2013-01-27 13:12:00,
2013-01-27 07:17:00,26.4,12.9,30.07,SE,135,15.0,17.0,56,0.00,,,0.00,meteohub,2013-01-27 13:17:00,
2013-01-27 07:22:00,26.4,12.9,30.07,SE,135,10.0,17.0,56,0.00,,,0.00,meteohub,2013-01-27 13:22:00,
2013-01-27 07:27:00,26.4,12.9,30.06,SE,135,15.0,17.0,56,0.00,,,0.00,meteohub,2013-01-27 13:27:00,
2013-01-27 07:32:00,26.4,13.3,30.07,SE,135,14.0,17.0,57,0.00,,,0.00,meteohub,2013-01-27 13:32:00,
2013-01-27 07:37:00,26.4,13.3,30.06,South,180,18.0,18.0,57,0.00,,,0.00,meteohub,2013-01-27 13:37:00,
2013-01-27 07:42:00,26.4,13.3,30.07,SE,135,15.0,18.0,57,0.00,,,0.00,meteohub,2013-01-27 13:42:00,
2013-01-27 07:47:00,26.4,13.3,30.07,SE,135,16.0,18.0,57,0.00,,,0.00,meteohub,2013-01-27 13:47:00,
2013-01-27 07:52:00,26.4,13.3,30.07,SE,135,14.0,18.0,57,0.00,,,0.00,meteohub,2013-01-27 13:52:00,
2013-01-27 07:57:00,26.4,13.3,30.07,SE,135,17.0,17.0,57,0.00,,,0.00,meteohub,2013-01-27 13:57:00,
2013-01-27 08:02:00,26.4,13.3,30.07,SE,135,12.0,17.0,57,0.00,,,0.00,meteohub,2013-01-27 14:02:00,
2013-01-27 08:07:00,26.6,13.1,30.07,SE,135,17.0,17.0,56,0.00,,,0.00,meteohub,2013-01-27 14:07:00,
2013-01-27 08:12:00,26.6,13.1,30.07,SE,135,17.0,18.0,56,0.00,,,0.00,meteohub,2013-01-27 14:12:00,
2013-01-27 08:17:00,26.6,13.1,30.07,SE,135,14.0,18.0,56,0.00,,,0.00,meteohub,2013-01-27 14:17:00,
2013-01-27 08:22:00,26.6,13.1,30.07,South,180,13.0,18.0,56,0.00,,,0.00,meteohub,2013-01-27 14:22:00,
2013-01-27 08:27:00,26.8,13.1,30.08,SE,135,12.0,17.0,56,0.00,,,0.00,meteohub,2013-01-27 14:27:00,
2013-01-27 08:32:00,26.8,13.1,30.07,SE,135,9.0,17.0,56,0.00,,,0.00,meteohub,2013-01-27 14:32:00,
2013-01-27 08:37:00,26.8,13.6,30.07,SE,135,14.0,17.0,57,0.00,,,0.00,meteohub,2013-01-27 14:37:00,
2013-01-27 08:42:00,26.6,13.5,30.06,SE,135,18.0,18.0,57,0.00,,,0.00,meteohub,2013-01-27 14:42:00,
2013-01-27 08:47:00,26.6,13.8,30.06,SE,135,15.0,18.0,58,0.00,,,0.00,meteohub,2013-01-27 14:47:00,
2013-01-27 08:52:00,26.6,13.8,30.07,SE,135,14.0,18.0,58,0.00,,,0.00,meteohub,2013-01-27 14:52:00,
2013-01-27 08:57:00,26.6,14.2,30.07,South,180,16.0,18.0,59,0.00,,,0.00,meteohub,2013-01-27 14:57:00,
2013-01-27 09:02:00,26.8,14.4,30.06,South,180,15.0,17.0,59,0.00,,,0.00,meteohub,2013-01-27 15:02:00,
2013-01-27 09:07:00,26.8,14.7,30.06,SE,135,21.0,21.0,60,0.00,,,0.00,meteohub,2013-01-27 15:07:00,
2013-01-27 09:12:00,26.8,15.1,30.06,ESE,113,17.0,21.0,61,0.00,,,0.00,meteohub,2013-01-27 15:12:00,
2013-01-27 09:17:00,26.8,15.1,30.06,SE,135,16.0,21.0,61,0.00,,,0.00,meteohub,2013-01-27 15:17:00,
2013-01-27 09:22:00,26.8,15.1,30.06,SE,135,16.0,22.0,61,0.00,,,0.00,meteohub,2013-01-27 15:22:00,
2013-01-27 09:27:00,26.8,15.1,30.06,SE,135,17.0,22.0,61,0.00,,,0.00,meteohub,2013-01-27 15:27:00,
2013-01-27 09:32:00,27.0,15.3,30.06,SE,135,15.0,17.0,61,0.00,,,0.00,meteohub,2013-01-27 15:32:00,
2013-01-27 09:37:00,27.0,15.6,30.05,South,180,13.0,17.0,62,0.00,,,0.00,meteohub,2013-01-27 15:37:00,
2013-01-27 09:42:00,27.1,15.4,30.05,SE,135,12.0,17.0,61,0.00,,,0.00,meteohub,2013-01-27 15:42:00,
2013-01-27 09:47:00,27.1,15.4,30.04,SE,135,12.0,17.0,61,0.00,,,0.00,meteohub,2013-01-27 15:47:00,
2013-01-27 09:52:00,27.1,15.4,30.05,SE,135,13.0,17.0,61,0.00,,,0.00,meteohub,2013-01-27 15:52:00,
2013-01-27 09:57:00,27.3,15.6,30.04,SE,135,15.0,16.0,61,0.00,,,0.00,meteohub,2013-01-27 15:57:00,
2013-01-27 10:02:00,27.3,15.6,30.04,SE,135,17.0,17.0,61,0.00,,,0.00,meteohub,2013-01-27 16:02:00,
2013-01-27 10:07:00,27.3,15.6,30.04,SE,135,11.0,17.0,61,0.00,,,0.00,meteohub,2013-01-27 16:07:00,
2013-01-27 10:12:00,27.5,15.8,30.03,South,180,11.0,17.0,61,0.00,,,0.00,meteohub,2013-01-27 16:12:00,
2013-01-27 10:17:00,27.5,15.8,30.03,SE,135,9.0,17.0,61,0.00,,,0.00,meteohub,2013-01-27 16:17:00,
2013-01-27 10:22:00,27.5,15.8,30.03,SE,135,12.0,18.0,61,0.00,,,0.00,meteohub,2013-01-27 16:22:00,
2013-01-27 10:27:00,27.7,16.0,30.03,SE,135,13.0,18.0,61,0.00,,,0.00,meteohub,2013-01-27 16:27:00,
2013-01-27 10:32:00,27.7,16.0,30.02,SE,135,18.0,18.0,61,0.00,,,0.00,meteohub,2013-01-27 16:32:00,
2013-01-27 10:37:00,27.7,16.0,30.03,SE,135,17.0,19.0,61,0.00,,,0.00,meteohub,2013-01-27 16:37:00,
2013-01-27 10:42:00,27.7,16.0,30.04,SSW,203,17.0,22.0,61,0.00,,,0.00,meteohub,2013-01-27 16:42:00,
2013-01-27 10:47:00,27.5,16.2,30.03,SE,135,23.0,23.0,62,0.00,,,0.00,meteohub,2013-01-27 16:47:00,
2013-01-27 10:52:00,27.5,16.2,30.01,East,90,17.0,23.0,62,0.00,,,0.00,meteohub,2013-01-27 16:52:00,
2013-01-27 10:57:00,27.5,16.2,30.00,SE,135,15.0,23.0,62,0.00,,,0.00,meteohub,2013-01-27 16:57:00,
2013-01-27 11:02:00,27.7,16.3,29.99,SE,135,14.0,23.0,62,0.00,,,0.00,meteohub,2013-01-27 17:02:00,
2013-01-27 11:07:00,27.7,16.7,29.99,SE,135,21.0,23.0,63,0.00,,,0.00,meteohub,2013-01-27 17:07:00,
2013-01-27 11:12:00,27.7,16.7,29.98,SE,135,17.0,23.0,63,0.00,,,0.00,meteohub,2013-01-27 17:12:00,
2013-01-27 11:17:00,27.9,17.2,29.98,SE,135,17.0,23.0,64,0.00,,,0.00,meteohub,2013-01-27 17:17:00,
2013-01-27 11:22:00,27.9,17.6,29.97,SE,135,16.0,22.0,65,0.00,,,0.00,meteohub,2013-01-27 17:22:00,
2013-01-27 11:27:00,27.7,17.8,29.97,SE,135,19.0,22.0,66,0.00,,,0.00,meteohub,2013-01-27 17:27:00,
2013-01-27 11:32:00,27.7,18.1,29.97,South,180,21.0,21.0,67,0.00,,,0.00,meteohub,2013-01-27 17:32:00,
2013-01-27 11:37:00,27.7,18.5,29.97,SE,135,17.0,21.0,68,0.00,,,0.00,meteohub,2013-01-27 17:37:00,
2013-01-27 11:42:00,27.5,18.7,29.96,SE,135,19.0,21.0,69,0.00,,,0.00,meteohub,2013-01-27 17:42:00,
2013-01-27 11:47:00,27.7,19.6,29.95,SE,135,25.0,25.0,71,0.00,,,0.00,meteohub,2013-01-27 17:47:00,
2013-01-27 11:52:00,27.9,19.9,29.95,SE,135,15.0,25.0,72,0.00,,,0.00,meteohub,2013-01-27 17:52:00,
2013-01-27 11:57:00,27.9,20.3,29.95,SE,135,19.0,25.0,73,0.00,,,0.00,meteohub,2013-01-27 17:57:00,
2013-01-27 12:02:00,27.9,20.3,29.95,SE,135,15.0,25.0,73,0.00,,,0.00,meteohub,2013-01-27 18:02:00,
2013-01-27 12:07:00,27.9,20.7,29.95,SE,135,22.0,22.0,74,0.00,,,0.00,meteohub,2013-01-27 18:07:00,
2013-01-27 12:12:00,27.9,20.7,29.96,SE,135,21.0,22.0,74,0.00,,,0.00,meteohub,2013-01-27 18:12:00,
2013-01-27 12:17:00,28.0,21.2,29.94,SE,135,19.0,22.0,75,0.00,,,0.00,meteohub,2013-01-27 18:17:00,
2013-01-27 12:22:00,28.0,21.4,29.94,SE,135,11.0,22.0,76,0.00,,,0.00,meteohub,2013-01-27 18:22:00,
2013-01-27 12:27:00,28.0,21.4,29.94,SE,135,14.0,23.0,76,0.00,,,0.00,meteohub,2013-01-27 18:27:00,
2013-01-27 12:32:00,28.2,21.9,29.95,SE,135,0.0,23.0,77,0.00,,,0.00,meteohub,2013-01-27 18:32:00,
2013-01-27 12:37:00,28.2,22.6,29.94,SE,135,0.0,23.0,79,0.00,,,0.00,meteohub,2013-01-27 18:37:00,
2013-01-27 12:42:00,28.2,22.8,29.93,SE,135,0.0,15.0,80,0.00,,,0.00,meteohub,2013-01-27 18:42:00,
2013-01-27 12:47:00,28.2,22.8,29.94,SE,135,0.0,0.0,80,0.00,,,0.00,meteohub,2013-01-27 18:47:00,
2013-01-27 12:52:00,28.2,22.8,29.95,SE,135,0.0,0.0,80,0.00,,,0.00,meteohub,2013-01-27 18:52:00,
2013-01-27 12:57:00,28.2,23.2,29.93,SE,135,0.0,0.0,81,0.00,,,0.00,meteohub,2013-01-27 18:57:00,
2013-01-27 13:02:00,28.2,23.2,29.93,East,90,0.0,0.0,81,0.00,,,0.00,meteohub,2013-01-27 19:02:00,
2013-01-27 13:07:00,28.4,24.4,29.92,SE,135,0.0,0.0,85,0.00,,,0.00,meteohub,2013-01-27 19:07:00,
2013-01-27 13:12:00,28.6,24.6,29.91,SE,135,0.0,0.0,85,0.00,,,0.00,meteohub,2013-01-27 19:12:00,
2013-01-27 13:17:00,28.6,24.6,29.91,East,90,0.0,0.0,85,0.00,,,0.00,meteohub,2013-01-27 19:17:00,
2013-01-27 13:22:00,28.6,24.6,29.90,SE,135,0.0,0.0,85,0.00,,,0.00,meteohub,2013-01-27 19:22:00,
2013-01-27 13:27:00,28.6,24.6,29.89,SE,135,0.0,0.0,85,0.00,,,0.00,meteohub,2013-01-27 19:27:00,
2013-01-27 13:32:00,28.6,24.6,29.88,East,90,0.0,0.0,85,0.00,,,0.00,meteohub,2013-01-27 19:32:00,
2013-01-27 13:38:00,28.8,24.8,29.88,SE,135,0.0,0.0,85,0.00,,,0.00,meteohub,2013-01-27 19:38:00,
2013-01-27 13:43:00,28.9,25.0,29.89,East,90,0.0,0.0,85,0.00,,,0.00,meteohub,2013-01-27 19:43:00,
2013-01-27 13:48:00,28.9,25.0,29.88,SE,135,0.0,0.0,85,0.00,,,0.00,meteohub,2013-01-27 19:48:00,
2013-01-27 13:53:00,29.1,25.2,29.87,SE,135,0.0,0.0,85,0.00,,,0.00,meteohub,2013-01-27 19:53:00,
2013-01-27 13:58:00,29.1,25.2,29.85,SE,135,0.0,0.0,85,0.00,,,0.00,meteohub,2013-01-27 19:58:00,
2013-01-27 14:03:00,29.1,25.2,29.85,SE,135,0.0,0.0,85,0.00,,,0.00,meteohub,2013-01-27 20:03:00,
2013-01-27 14:08:00,29.1,25.2,29.86,SE,135,0.0,0.0,85,0.00,,,0.00,meteohub,2013-01-27 20:08:00,
2013-01-27 14:13:00,29.1,25.2,29.86,SE,135,0.0,0.0,85,0.00,,,0.00,meteohub,2013-01-27 20:13:00,
2013-01-27 14:18:00,29.1,25.2,29.85,SE,135,0.0,0.0,85,0.00,,,0.00,meteohub,2013-01-27 20:18:00,
2013-01-27 14:23:00,29.1,25.5,29.85,SE,135,0.0,0.0,86,0.00,,,0.00,meteohub,2013-01-27 20:23:00,
2013-01-27 14:28:00,29.3,25.7,29.86,SE,135,0.0,0.0,86,0.00,,,0.00,meteohub,2013-01-27 20:28:00,
2013-01-27 14:33:00,29.5,25.9,29.80,SE,135,0.0,0.0,86,0.00,,,0.00,meteohub,2013-01-27 20:33:00,
2013-01-27 14:39:00,29.7,26.2,29.80,SE,135,0.0,0.0,87,0.00,,,0.00,meteohub,2013-01-27 20:39:00,
2013-01-27 14:44:00,29.8,26.8,29.80,SE,135,0.0,0.0,88,0.00,,,0.00,meteohub,2013-01-27 20:44:00,
2013-01-27 14:49:00,30.0,27.0,29.82,SE,135,0.0,0.0,88,0.00,,,0.00,meteohub,2013-01-27 20:49:00,
2013-01-27 14:54:00,29.8,26.8,29.82,SE,135,0.0,0.0,88,0.00,,,0.00,meteohub,2013-01-27 20:54:00,
2013-01-27 14:59:00,30.0,27.1,29.82,SE,135,0.0,0.0,89,0.00,,,0.00,meteohub,2013-01-27 20:59:00,
2013-01-27 15:04:00,30.0,27.1,29.82,SE,135,0.0,0.0,89,0.00,,,0.00,meteohub,2013-01-27 21:04:00,
2013-01-27 15:09:00,30.0,27.5,29.83,SE,135,0.0,0.0,90,0.00,,,0.00,meteohub,2013-01-27 21:09:00,
2013-01-27 15:14:00,30.0,27.5,29.83,SE,135,0.0,0.0,90,0.00,,,0.00,meteohub,2013-01-27 21:14:00,
2013-01-27 15:19:00,30.0,27.5,29.83,SE,135,0.0,0.0,90,0.00,,,0.00,meteohub,2013-01-27 21:19:00,
2013-01-27 15:24:00,30.2,27.7,29.81,SE,135,0.0,0.0,90,0.00,,,0.00,meteohub,2013-01-27 21:24:00,
2013-01-27 15:29:00,30.4,27.9,29.82,SE,135,0.0,0.0,90,0.00,,,0.00,meteohub,2013-01-27 21:29:00,
2013-01-27 15:34:00,30.4,27.9,29.82,SE,135,0.0,0.0,90,0.00,,,0.00,meteohub,2013-01-27 21:34:00,
2013-01-27 15:39:00,30.6,28.2,29.81,SE,135,0.0,0.0,91,0.00,,,0.00,meteohub,2013-01-27 21:39:00,
2013-01-27 15:44:00,30.6,28.2,29.81,SE,135,0.0,0.0,91,0.00,,,0.00,meteohub,2013-01-27 21:44:00,
2013-01-27 15:50:00,30.7,28.4,29.82,SE,135,0.0,0.0,91,0.00,,,0.00,meteohub,2013-01-27 21:50:00,
2013-01-27 15:55:00,30.7,28.4,29.81,SE,135,0.0,0.0,91,0.00,,,0.00,meteohub,2013-01-27 21:55:00,
2013-01-27 16:00:00,30.7,28.4,29.81,SE,135,0.0,0.0,91,0.00,,,0.00,meteohub,2013-01-27 22:00:00,
2013-01-27 16:05:00,30.7,28.8,29.80,SE,135,0.0,0.0,92,0.00,,,0.00,meteohub,2013-01-27 22:05:00,
2013-01-27 16:10:00,30.9,28.9,29.80,SE,135,0.0,0.0,92,0.00,,,0.00,meteohub,2013-01-27 22:10:00,
2013-01-27 16:15:00,31.1,29.1,29.80,SE,135,0.0,0.0,92,0.00,,,0.00,meteohub,2013-01-27 22:15:00,
2013-01-27 16:20:00,31.1,29.1,29.80,SE,135,0.0,0.0,92,0.00,,,0.00,meteohub,2013-01-27 22:20:00,
2013-01-27 16:25:00,31.1,29.1,29.79,SE,135,0.0,0.0,92,0.00,,,0.00,meteohub,2013-01-27 22:25:00,
2013-01-27 16:30:00,31.1,29.3,29.79,SE,135,0.0,0.0,93,0.00,,,0.00,meteohub,2013-01-27 22:30:00,
2013-01-27 16:35:00,31.3,29.5,29.79,SE,135,0.0,0.0,93,0.00,,,0.00,meteohub,2013-01-27 22:35:00,
2013-01-27 16:40:00,31.3,29.5,29.79,SE,135,0.0,0.0,93,0.00,,,0.00,meteohub,2013-01-27 22:40:00,
2013-01-27 16:45:00,31.3,29.5,29.79,SE,135,0.0,0.0,93,0.00,,,0.00,meteohub,2013-01-27 22:45:00,
2013-01-27 16:50:00,31.5,30.0,29.78,SE,135,0.0,0.0,94,0.00,,,0.00,meteohub,2013-01-27 22:50:00,
2013-01-27 16:56:00,31.5,30.0,29.78,SE,135,0.0,0.0,94,0.00,,,0.00,meteohub,2013-01-27 22:56:00,
2013-01-27 17:01:00,31.6,30.2,29.78,SE,135,0.0,0.0,94,0.00,,,0.00,meteohub,2013-01-27 23:01:00,
2013-01-27 17:06:00,31.6,30.2,29.78,SE,135,0.0,0.0,94,0.00,,,0.00,meteohub,2013-01-27 23:06:00,
2013-01-27 17:11:00,31.8,30.4,29.78,SE,135,0.0,0.0,94,0.00,,,0.00,meteohub,2013-01-27 23:11:00,
2013-01-27 17:16:00,31.8,30.4,29.78,SE,135,0.0,0.0,94,0.00,,,0.00,meteohub,2013-01-27 23:16:00,
2013-01-27 17:21:00,31.8,30.4,29.77,SE,135,0.0,0.0,94,0.00,,,0.00,meteohub,2013-01-27 23:21:00,
2013-01-27 17:26:00,32.0,30.2,29.77,SE,135,0.0,0.0,93,0.00,,,0.00,meteohub,2013-01-27 23:26:00,
2013-01-27 17:31:00,32.0,30.2,29.77,SE,135,0.0,0.0,93,0.00,,,0.00,meteohub,2013-01-27 23:31:00,
2013-01-27 17:36:00,32.0,30.2,29.77,SE,135,0.0,0.0,93,0.00,,,0.00,meteohub,2013-01-27 23:36:00,
2013-01-27 17:41:00,32.2,30.4,29.76,SE,135,0.0,0.0,93,0.00,,,0.00,meteohub,2013-01-27 23:41:00,
2013-01-27 17:46:00,32.2,30.6,29.77,SE,135,0.0,0.0,94,0.00,,,0.00,meteohub,2013-01-27 23:46:00,
2013-01-27 17:51:00,32.2,30.6,29.76,SE,135,0.0,0.0,94,0.00,,,0.00,meteohub,2013-01-27 23:51:00,
2013-01-27 17:56:00,32.2,30.6,29.76,SE,135,0.0,0.0,94,0.00,,,0.00,meteohub,2013-01-27 23:56:00,
2013-01-27 18:01:00,32.2,30.6,29.76,SE,135,0.0,0.0,94,0.00,,,0.00,meteohub,2013-01-28 00:01:00,
2013-01-27 18:06:00,32.2,30.6,29.76,SE,135,0.0,0.0,94,0.00,,,0.00,meteohub,2013-01-28 00:06:00,
2013-01-27 18:12:00,32.4,30.7,29.76,SE,135,0.0,0.0,94,0.00,,,0.00,meteohub,2013-01-28 00:12:00,
2013-01-27 18:17:00,32.4,30.7,29.76,SE,135,0.0,0.0,94,0.00,,,0.00,meteohub,2013-01-28 00:17:00,
2013-01-27 18:22:00,32.4,30.7,29.76,SE,135,0.0,0.0,94,0.00,,,0.00,meteohub,2013-01-28 00:22:00,
2013-01-27 18:27:00,32.4,30.7,29.76,SE,135,0.0,0.0,94,0.00,,,0.00,meteohub,2013-01-28 00:27:00,
2013-01-27 18:32:00,32.4,30.7,29.76,SE,135,0.0,0.0,94,0.00,,,0.00,meteohub,2013-01-28 00:32:00,
2013-01-27 18:37:00,32.4,30.7,29.76,SE,135,0.0,0.0,94,0.00,,,0.00,meteohub,2013-01-28 00:37:00,
2013-01-27 18:42:00,32.4,30.7,29.76,SE,135,0.0,0.0,94,0.00,,,0.00,meteohub,2013-01-28 00:42:00,
2013-01-27 18:47:00,32.4,30.7,29.76,SE,135,0.0,0.0,94,0.00,,,0.00,meteohub,2013-01-28 00:47:00,
2013-01-27 18:52:00,32.4,30.7,29.76,SE,135,0.0,0.0,94,0.00,,,0.00,meteohub,2013-01-28 00:52:00,
2013-01-27 18:57:00,32.4,30.7,29.75,SE,135,0.0,0.0,94,0.00,,,0.00,meteohub,2013-01-28 00:57:00,
2013-01-27 19:02:00,32.4,30.7,29.75,SE,135,0.0,0.0,94,0.00,,,0.00,meteohub,2013-01-28 01:02:00,
2013-01-27 19:07:00,32.5,30.9,29.75,SE,135,0.0,0.0,94,0.00,,,0.00,meteohub,2013-01-28 01:07:00,
2013-01-27 19:12:00,32.5,30.9,29.75,SE,135,0.0,0.0,94,0.00,,,0.00,meteohub,2013-01-28 01:12:00,
2013-01-27 19:17:00,32.5,30.9,29.75,SE,135,0.0,0.0,94,0.00,,,0.00,meteohub,2013-01-28 01:17:00,
2013-01-27 19:22:00,32.5,30.9,29.75,SE,135,0.0,0.0,94,0.00,,,0.00,meteohub,2013-01-28 01:22:00,
2013-01-27 19:27:00,32.5,31.3,29.75,SE,135,0.0,0.0,95,0.00,,,0.00,meteohub,2013-01-28 01:27:00,
2013-01-27 19:32:00,32.5,31.3,29.74,SE,135,0.0,0.0,95,0.00,,,0.00,meteohub,2013-01-28 01:32:00,
2013-01-27 19:37:00,32.5,31.3,29.74,SE,135,0.0,0.0,95,0.00,,,0.00,meteohub,2013-01-28 01:37:00,
2013-01-27 19:42:00,32.5,31.3,29.74,SE,135,0.0,0.0,95,0.00,,,0.00,meteohub,2013-01-28 01:42:00,
2013-01-27 19:47:00,32.7,31.5,29.74,SE,135,0.0,0.0,95,0.00,,,0.00,meteohub,2013-01-28 01:47:00,
2013-01-27 19:52:00,32.7,31.5,29.74,SE,135,0.0,0.0,95,0.00,,,0.00,meteohub,2013-01-28 01:52:00,
2013-01-27 19:57:00,32.7,31.5,29.74,SE,135,0.0,0.0,95,0.00,,,0.00,meteohub,2013-01-28 01:57:00,
2013-01-27 20:02:00,32.7,31.5,29.74,SE,135,0.0,0.0,95,0.00,,,0.00,meteohub,2013-01-28 02:02:00,
2013-01-27 20:07:00,32.7,31.5,29.74,SE,135,0.0,0.0,95,0.00,,,0.00,meteohub,2013-01-28 02:07:00,
2013-01-27 20:12:00,32.7,31.5,29.74,SE,135,0.0,0.0,95,0.00,,,0.00,meteohub,2013-01-28 02:12:00,
2013-01-27 20:17:00,32.7,31.5,29.73,SE,135,0.0,0.0,95,0.00,,,0.00,meteohub,2013-01-28 02:17:00,
2013-01-27 20:22:00,32.7,31.5,29.74,SE,135,0.0,0.0,95,0.00,,,0.00,meteohub,2013-01-28 02:22:00,
2013-01-27 20:27:00,32.7,31.5,29.73,SE,135,0.0,0.0,95,0.00,,,0.00,meteohub,2013-01-28 02:27:00,
2013-01-27 20:32:00,32.9,31.6,29.73,SE,135,0.0,0.0,95,0.00,,,0.00,meteohub,2013-01-28 02:32:00,
2013-01-27 20:37:00,32.9,31.6,29.73,SE,135,0.0,0.0,95,0.00,,,0.00,meteohub,2013-01-28 02:37:00,
2013-01-27 20:42:00,32.9,31.6,29.73,SE,135,0.0,0.0,95,0.00,,,0.00,meteohub,2013-01-28 02:42:00,
2013-01-27 20:47:00,32.9,31.6,29.73,SE,135,0.0,0.0,95,0.00,,,0.00,meteohub,2013-01-28 02:47:00,
2013-01-27 20:52:00,32.9,31.6,29.73,SE,135,0.0,0.0,95,0.00,,,0.00,meteohub,2013-01-28 02:52:00,
2013-01-27 20:57:00,32.9,31.6,29.73,SE,135,0.0,0.0,95,0.00,,,0.00,meteohub,2013-01-28 02:57:00,
2013-01-27 21:02:00,32.9,31.6,29.73,SE,135,0.0,0.0,95,0.00,,,0.00,meteohub,2013-01-28 03:02:00,
2013-01-27 21:07:00,32.9,31.6,29.72,SE,135,0.0,0.0,95,0.00,,,0.00,meteohub,2013-01-28 03:07:00,
2013-01-27 21:13:00,33.1,31.8,29.72,SE,135,0.0,0.0,95,0.00,,,0.00,meteohub,2013-01-28 03:13:00,
2013-01-27 21:18:00,33.1,31.8,29.71,SE,135,0.0,0.0,95,0.00,,,0.00,meteohub,2013-01-28 03:18:00,
2013-01-27 21:23:00,33.1,31.8,29.71,SE,135,0.0,0.0,95,0.00,,,0.00,meteohub,2013-01-28 03:23:00,
2013-01-27 21:28:00,33.1,31.8,29.71,SE,135,0.0,0.0,95,0.00,,,0.00,meteohub,2013-01-28 03:28:00,
2013-01-27 21:33:00,33.3,32.0,29.71,SE,135,0.0,0.0,95,0.00,,,0.00,meteohub,2013-01-28 03:33:00,
2013-01-27 21:38:00,33.3,32.0,29.71,SE,135,0.0,0.0,95,0.00,,,0.00,meteohub,2013-01-28 03:38:00,
2013-01-27 21:43:00,33.4,32.2,29.71,SE,135,0.0,0.0,95,0.00,,,0.00,meteohub,2013-01-28 03:43:00,
2013-01-27 21:48:00,33.4,32.4,29.71,SE,135,0.0,0.0,96,0.00,,,0.00,meteohub,2013-01-28 03:48:00,
2013-01-27 21:53:00,33.4,32.4,29.70,SE,135,0.0,0.0,96,0.00,,,0.00,meteohub,2013-01-28 03:53:00,
2013-01-27 21:58:00,33.4,32.4,29.70,SE,135,0.0,0.0,96,0.00,,,0.00,meteohub,2013-01-28 03:58:00,
2013-01-27 22:03:00,33.8,32.5,29.70,SE,135,0.0,0.0,95,0.00,,,0.00,meteohub,2013-01-28 04:03:00,
2013-01-27 22:08:00,33.8,32.5,29.70,SE,135,0.0,0.0,95,0.00,,,0.00,meteohub,2013-01-28 04:08:00,
2013-01-27 22:13:00,34.0,32.7,29.70,SE,135,0.0,0.0,95,0.00,,,0.00,meteohub,2013-01-28 04:13:00,
2013-01-27 22:19:00,34.0,32.7,29.70,SE,135,0.0,0.0,95,0.00,,,0.00,meteohub,2013-01-28 04:19:00,
2013-01-27 22:24:00,34.0,32.7,29.70,SE,135,0.0,0.0,95,0.00,,,0.00,meteohub,2013-01-28 04:24:00,
2013-01-27 22:33:00,34.2,32.9,29.70,SE,135,12.0,0.0,95,0.00,,,0.00,meteohub,2013-01-28 04:33:00,
2013-01-27 22:38:00,34.3,33.1,29.70,SE,135,15.0,15.0,95,0.00,,,0.00,meteohub,2013-01-28 04:38:00,
2013-01-27 22:43:00,34.3,33.1,29.70,SE,135,15.0,15.0,95,0.00,,,0.00,meteohub,2013-01-28 04:43:00,
2013-01-27 22:48:00,34.5,33.3,29.70,SE,135,11.0,15.0,95,0.00,,,0.00,meteohub,2013-01-28 04:48:00,
2013-01-27 22:53:00,34.5,33.3,29.70,SE,135,11.0,15.0,95,0.01,,,0.01,meteohub,2013-01-28 04:53:00,
2013-01-27 22:58:00,34.5,33.3,29.70,SE,135,15.0,15.0,95,0.01,,,0.01,meteohub,2013-01-28 04:58:00,
2013-01-27 23:00:00,34.5,33.3,29.70,SE,135,15.0,15.0,95,0.01,,,0.01,meteohub,2013-01-28 05:00:00,
2013-01-27 23:02:00,34.5,33.3,29.70,SE,135,15.0,15.0,95,0.01,,,0.01,meteohub,2013-01-28 05:02:00,
2013-01-27 23:07:00,34.7,33.4,29.70,SE,135,15.0,15.0,95,0.01,,,0.01,meteohub,2013-01-28 05:07:00,
2013-01-27 23:12:00,34.9,33.6,29.70,SE,135,11.0,15.0,95,0.01,,,0.01,meteohub,2013-01-28 05:12:00,
2013-01-27 23:18:00,34.9,33.6,29.69,SE,135,13.0,15.0,95,0.01,,,0.01,meteohub,2013-01-28 05:18:00,
2013-01-27 23:23:00,34.9,33.8,29.69,SE,135,13.0,15.0,96,0.01,,,0.01,meteohub,2013-01-28 05:23:00,
2013-01-27 23:28:00,34.9,33.8,29.69,SE,135,11.0,13.0,96,0.01,,,0.01,meteohub,2013-01-28 05:28:00,
2013-01-27 23:33:00,34.7,33.6,29.69,SE,135,14.0,14.0,96,0.01,,,0.01,meteohub,2013-01-28 05:33:00,
2013-01-27 23:38:00,34.9,34.9,29.68,SE,135,11.0,14.0,0,0.01,,,0.01,meteohub,2013-01-28 05:38:00,
2013-01-27 23:43:00,34.9,33.8,29.69,SE,135,13.0,14.0,96,0.01,,,0.01,meteohub,2013-01-28 05:43:00,
2013-01-27 23:48:00,34.9,33.8,29.69,SE,135,13.0,14.0,96,0.01,,,0.01,meteohub,2013-01-28 05:48:00,
2013-01-27 23:53:00,35.2,34.2,29.68,SE,135,15.0,15.0,96,0.00,,,0.01,meteohub,2013-01-28 05:53:00,
2013-01-27 23:58:00,35.2,34.2,29.68,SE,135,15.0,15.0,96,0.01,,,0.02,meteohub,2013-01-28 05:58:00,